International Skating Union - Official Site

ISU World Cup Obihiro
November 14-16, 2014

Draw | Lap Times | Index | World Cup

Referee: Dan  IMMERFALL  (USA)
Starter: Yoshihiro  KITAZAWA  (JPN)
StartTime: EndTime: Air Temp: Ice Temp: Humidity:
16:23 17:09 17.5 ℃ -7.7 ℃ 31%
Result Team Pursuit Men
Rankings as of Nov 15 2014 6:06PM
Rank: No.: Team: Nation: Time: Behind: Points:
Total 10
1 1 Netherlands (173) Sven Kramer (176) Wouter olde Heuvel (170) Douwe de Vries NED NED 3:43.680.5 - 17.91 - (17.9)
1.0 - 31.19 - (13.2)
1.5 - 44.47 - (13.2)
2.0 - 57.70 - (13.2)
2.5 - 1:11.09 - (13.3)
3.0 - 1:24.70 - (13.6)
3.5 - 1:38.25 - (13.5)
4.0 - 1:51.86 - (13.6)
4.5 - 2:05.80 - (13.9)
5.0 - 2:19.29 - (13.4)
5.5 - 2:32.87 - (13.5)
6.0 - 2:46.83 - (13.9)
6.5 - 3:00.91 - (14.0)
7.0 - 3:15.17 - (14.2)
7.5 - 3:29.41 - (14.2)
8.0 - 3:43.68 - (14.3)
100
2 3 Korea (166) Seung-Hoon Lee (160) Cheol-Min Kim (164) Byung-Wook Ko (163) Myung-Seok Kim KOR KOR 3:47.150.5 - 18.11 - (18.1)
1.0 - 31.74 - (13.6)
1.5 - 45.37 - (13.6)
2.0 - 59.01 - (13.6)
2.5 - 1:12.88 - (13.8)
3.0 - 1:26.51 - (13.6)
3.5 - 1:40.31 - (13.7)
4.0 - 1:54.01 - (13.7)
4.5 - 2:08.03 - (14.0)
5.0 - 2:22.04 - (14.0)
5.5 - 2:36.40 - (14.3)
6.0 - 2:50.65 - (14.2)
6.5 - 3:05.02 - (14.3)
7.0 - 3:19.06 - (14.0)
7.5 - 3:33.11 - (14.0)
8.0 - 3:47.15 - (14.0)
3.47 80
3 6 Russia (200) Aleksandr Rumyantsev (201) Danila Semerikov (203) Danil Sinitsyn (194) Sergey Gryaztsov RUS RUS 3:48.220.5 - 18.03 - (18.0)
1.0 - 31.45 - (13.4)
1.5 - 44.94 - (13.4)
2.0 - 58.45 - (13.5)
2.5 - 1:12.18 - (13.7)
3.0 - 1:25.97 - (13.7)
3.5 - 1:39.84 - (13.8)
4.0 - 1:53.63 - (13.7)
4.5 - 2:07.73 - (14.1)
5.0 - 2:21.78 - (14.0)
5.5 - 2:36.09 - (14.3)
6.0 - 2:50.32 - (14.2)
6.5 - 3:04.64 - (14.3)
7.0 - 3:19.10 - (14.4)
7.5 - 3:33.60 - (14.5)
8.0 - 3:48.22 - (14.6)
4.54 70
4 2 Poland (186) Zbigniew Brodka (191) Jan Szymanski (189) Konrad Niedzwiedzki (187) Roland Cieslak POL POL 3:48.660.5 - 17.94 - (17.9)
1.0 - 31.36 - (13.4)
1.5 - 44.91 - (13.5)
2.0 - 58.57 - (13.6)
2.5 - 1:12.32 - (13.7)
3.0 - 1:26.29 - (13.9)
3.5 - 1:40.08 - (13.7)
4.0 - 1:53.95 - (13.8)
4.5 - 2:08.20 - (14.2)
5.0 - 2:22.01 - (13.8)
5.5 - 2:35.86 - (13.8)
6.0 - 2:49.82 - (13.9)
6.5 - 3:04.20 - (14.3)
7.0 - 3:19.02 - (14.8)
7.5 - 3:34.06 - (15.0)
8.0 - 3:48.66 - (14.6)
4.98 60
5 8 Japan (152) Shane Williamson (144) Shota Nakamura (149) Takuro Ogawa (147) Takuro Oda JPN JPN 3:51.530.5 - 18.08 - (18.0)
1.0 - 31.94 - (13.8)
1.5 - 45.94 - (13.9)
2.0 - 1:00.07 - (14.1)
2.5 - 1:14.19 - (14.1)
3.0 - 1:28.30 - (14.1)
3.5 - 1:42.59 - (14.2)
4.0 - 1:56.69 - (14.0)
4.5 - 2:10.89 - (14.1)
5.0 - 2:25.22 - (14.3)
5.5 - 2:39.74 - (14.5)
6.0 - 2:54.12 - (14.3)
6.5 - 3:08.73 - (14.6)
7.0 - 3:22.97 - (14.2)
7.5 - 3:37.24 - (14.2)
8.0 - 3:51.53 - (14.3)
7.85 50
6 9 Austria (101) Armin Hager (102) Linus Heidegger (103) Bram Smallenbroek AUT AUT 3:52.240.5 - 17.99 - (17.9)
1.0 - 31.62 - (13.6)
1.5 - 45.31 - (13.6)
2.0 - 59.21 - (13.8)
2.5 - 1:13.40 - (14.1)
3.0 - 1:27.69 - (14.2)
3.5 - 1:41.66 - (13.9)
4.0 - 1:55.58 - (13.9)
4.5 - 2:09.68 - (14.1)
5.0 - 2:24.03 - (14.3)
5.5 - 2:38.27 - (14.2)
6.0 - 2:52.88 - (14.6)
6.5 - 3:07.60 - (14.7)
7.0 - 3:22.59 - (14.9)
7.5 - 3:37.42 - (14.8)
8.0 - 3:52.24 - (14.8)
8.56 45
7 7 Italy (135) Nicola Tumolero (132) Andrea Giovannini (134) Luca Stefani (133) Mirko Giacomo Nenzi ITA ITA 3:52.680.5 - 17.86 - (17.8)
1.0 - 31.55 - (13.6)
1.5 - 45.48 - (13.9)
2.0 - 59.72 - (14.2)
2.5 - 1:13.96 - (14.2)
3.0 - 1:27.71 - (13.7)
3.5 - 1:41.79 - (14.0)
4.0 - 1:55.94 - (14.1)
4.5 - 2:10.46 - (14.5)
5.0 - 2:24.85 - (14.3)
5.5 - 2:39.35 - (14.5)
6.0 - 2:53.88 - (14.5)
6.5 - 3:08.44 - (14.5)
7.0 - 3:23.04 - (14.5)
7.5 - 3:37.88 - (14.8)
8.0 - 3:52.68 - (14.8)
9.00 40
8 5 Germany (125) Patrick Beckert (124) Alexej Baumgärtner (126) Denis Dressel GER GER 3:54.010.5 - 18.22 - (18.2)
1.0 - 31.92 - (13.7)
1.5 - 45.57 - (13.6)
2.0 - 59.18 - (13.6)
2.5 - 1:13.19 - (14.0)
3.0 - 1:27.32 - (14.1)
3.5 - 1:41.59 - (14.2)
4.0 - 1:56.03 - (14.4)
4.5 - 2:10.64 - (14.6)
5.0 - 2:24.96 - (14.3)
5.5 - 2:39.46 - (14.5)
6.0 - 2:54.33 - (14.8)
6.5 - 3:09.18 - (14.8)
7.0 - 3:24.07 - (14.8)
7.5 - 3:38.98 - (14.9)
8.0 - 3:54.01 - (15.0)
10.33 35
9 4 Canada (105) Jordan Belchos (114) Stefan Waples (110) Alec Janssens (113) Denny Morrison CAN CAN 3:55.130.5 - 18.16 - (18.1)
1.0 - 31.48 - (13.3)
1.5 - 44.86 - (13.3)
2.0 - 58.22 - (13.3)
2.5 - 1:11.84 - (13.6)
3.0 - 1:25.71 - (13.8)
3.5 - 1:39.44 - (13.7)
4.0 - 1:53.36 - (13.9)
4.5 - 2:07.82 - (14.4)
5.0 - 2:22.69 - (14.8)
5.5 - 2:37.92 - (15.2)
6.0 - 2:52.94 - (15.0)
6.5 - 3:08.09 - (15.1)
7.0 - 3:23.73 - (15.6)
7.5 - 3:39.36 - (15.6)
8.0 - 3:55.13 - (15.7)
11.45 30
10 10 China (117) Yiming Liu (119) Talabuhan Rehanbai (116) Bailin Li CHN CHN 3:56.040.5 - 18.33 - (18.3)
1.0 - 32.26 - (13.9)
1.5 - 45.65 - (13.3)
2.0 - 59.51 - (13.8)
2.5 - 1:13.59 - (14.0)
3.0 - 1:27.84 - (14.2)
3.5 - 1:42.31 - (14.4)
4.0 - 1:57.12 - (14.8)
4.5 - 2:11.68 - (14.5)
5.0 - 2:26.47 - (14.7)
5.5 - 2:41.20 - (14.7)
6.0 - 2:56.15 - (14.9)
6.5 - 3:11.30 - (15.1)
7.0 - 3:26.41 - (15.1)
7.5 - 3:41.28 - (14.8)
8.0 - 3:56.04 - (14.7)
12.36 25